Regional Weather Roundup
Issued by NWS

Home | Current Version | Previous Version | Text Only | Print | Product List | Glossary Off
Versions: 1 2 3 4 5 6 7 8 9 10 11 12 13 14 15 16 17 18 19 20 21 22 23 24 25 26 27 28 29 30 31 32 33 34 35 36 37 38 39 40 41 42 43 44 45 46 47 48 49 50

296
ASUS43 KLMK 260510
RWRKY
KENTUCKY REGIONAL WEATHER ROUNDUP
NATIONAL WEATHER SERVICE LOUISVILLE KY
100 AM EDT TUE SEP 26 2017

NOTE "FAIR" INDICATES FEW OR NO CLOUDS BELOW 12,000 FEET
WITH NO SIGNIFICANT WEATHER AND/OR OBSTRUCTIONS TO VISIBILITY.

KYZ001>023-026-027-061>063-070>075-260600-
WESTERN AND SOUTH CENTRAL KENTUCKY

CITY           SKY/WX    TMP DP  RH WIND       PRES   REMARKS
PADUCAH        CLEAR     67  63  87 CALM      29.95S
HENDERSON      CLEAR     67  66  97 CALM      29.97S
OWENSBORO      NOT AVBL
HOPKINSVILLE   CLEAR     70  66  85 CALM      29.96F
BOWLING GREEN  CLEAR     69  68  96 CALM      29.98R
GLASGOW        CLEAR     65  65 100 CALM      29.98S
$$

KYZ024-025-028>034-038-045-046-053-260600-
NORTH CENTRAL KENTUCKY

CITY           SKY/WX    TMP DP  RH WIND       PRES   REMARKS
LOUISVILLE/SDF CLEAR     77  66  68 CALM      29.98S
LOUISVILLE/LOU CLEAR     68  67  96 CALM      29.99S
FORT KNOX      CLEAR     67  66  98 CALM      29.97F
$$

KYZ035>037-039>044-047>052-055>060-089>105-260600-
NORTHEAST KENTUCKY

CITY           SKY/WX    TMP DP  RH WIND       PRES   REMARKS
LEXINGTON      CLEAR     65  61  87 CALM      30.01S
COVINGTON      CLEAR     73  65  75 CALM      30.01R
FRANKFORT      CLEAR     66  62  87 CALM      29.99S
$$

KYZ054-064>069-076>088-106>120-260600-
SOUTHEAST KENTUCKY

CITY           SKY/WX    TMP DP  RH WIND       PRES   REMARKS
JACKSON        CLEAR     70  62  76 CALM      30.02S
LONDON         CLEAR     63  62  97 CALM      30.01S
SOMERSET       CLEAR     61  61 100 CALM      30.02S
MIDDLESBORO    CLEAR     62  62 100 CALM      30.03S
MONTICELLO     CLEAR     61  60  97 CALM      30.03R
$$





USA.gov is the U.S. government's official web portal to all federal, state and local government web resources and services.